Weather Roundup
Issued by NWS Springfield, MO

Home | Current Version | Previous Version | Text Only | Print | Product List | Glossary On
Versions: 1 2 3 4 5 6 7 8 9 10 11 12 13 14 15 16 17 18 19 20 21 22 23 24 25 26 27 28 29 30 31 32 33 34 35 36 37 38 39 40 41 42 43 44 45 46 47 48 49 50
000
NZUS99 KSGF 290059
HRRSGF

HOURLY WEATHER
NATIONAL WEATHER SERVICE SPRINGFIELD MO
800 PM CDT THU MAY 28 2015

......SGF CWA......

CITY           SKY/WX    TMP DP  RH WIND       PRES   REMARKS
SPRINGFIELD    PTCLDY    71  67  87 NE8       29.98F
JOPLIN         MOCLDY    73  65  75 W3        29.97S
WEST PLAINS    CLOUDY    73  65  75 SE12      30.02F
ROLLA          CLOUDY    73  66  78 SE3       30.01F
OSAGE BEACH    CLOUDY    64  63  94 E6        30.01F
BRANSON        MOCLDY    72  64  78 S7        30.01F

......SURROUNDING SGF CWA......

CITY           SKY/WX    TMP DP  RH WIND       PRES   REMARKS
CHANUTE        PTCLDY    71  66  84 S5        29.94S
PARSONS        PTCLDY    73  67  81 S5        29.95S
COFFEYVILLE    PTCLDY    72  67  84 S5        29.93S
EMPORIA        CLEAR     72  64  76 SE7       29.94R
SILOAM SPRINGS PTCLDY    72  63  73 S7        29.99F
HARRISON AR    MOCLDY    69  63  81 SE7       30.02F
NEAR YELLVILLE CLOUDY    70  64  83 S5        30.01S

......KANSAS AND MISSOURI......

CITY           SKY/WX    TMP DP  RH WIND       PRES   REMARKS
KANSAS CTY INT MOCLDY    70  64  81 SE6       29.97S
DOWNTOWN KC    MOCLDY    72  62  71 SE5       29.96S
COLUMBIA       LGT RAIN  69  66  90 E6        30.04S FOG
SEDALIA        CLOUDY    70  64  81 E7        30.01F
ST JOSEPH      MOCLDY    71  65  81 SE8       29.97R
ST LOUIS       MOCLDY    81  65  58 S12       30.04S
SPIRIT OF STL  MOCLDY   N/A N/A N/A CALM      30.02F
KIRKSVILLE     CLOUDY    66  65  96 E9        30.03F
WICHITA        MOCLDY    77  65  66 SE9       29.91S
TOPEKA         CLEAR     73  64  73 SE6       29.96R
OLATHE         MOCLDY    69  63  81 SE6       29.96S

......TENNESSEE......

CITY           SKY/WX    TMP DP  RH WIND       PRES   REMARKS
MEMPHIS        PTCLDY    79  64  60 S7        30.06F
NASHVILLE      MOCLDY    78  66  66 CALM      30.12S

......ARKANSAS.......

CITY           SKY/WX    TMP DP  RH WIND       PRES   REMARKS
FAYETTEVILLE   PTCLDY    70  65  84 SE6       29.99F
FT SMITH       PTCLDY    74  67  78 E6        29.97F
LITTLE ROCK    CLOUDY    72  66  81 S3        30.03S

......OKLAHOMA.......

CITY           SKY/WX    TMP DP  RH WIND       PRES   REMARKS
TULSA          CLOUDY    75  69  81 SE5       29.90F
PONCA CITY     CLOUDY    76  69  79 SE12      29.88F
MCALESTER      CLEAR     78  71  79 SE6       29.94F
OKLAHOMA CITY  CLOUDY    72  68  87 S6        29.90F

......IOWA............

CITY           SKY/WX    TMP DP  RH WIND       PRES   REMARKS
DES MOINES     CLOUDY    73  64  73 SE16G24   29.97F
QUAD CITIES    CLOUDY    75  59  57 SE3       30.02F

......ILLINOIS........

CITY           SKY/WX    TMP DP  RH WIND       PRES   REMARKS
QUINCY         CLOUDY    71  65  81 NW9       30.06R
CHICAGO        MOCLDY    75  53  46 E10       30.09F




USA.gov is the U.S. government's official web portal to all federal, state and local government web resources and services.